Location: Unspecified
(0.0000°N, 0.0000°E)
Time: 17:16:11
(UTC+00:00)

Vanguard 3 - Visible Passes

Search period start: 26 May 2022 00:00
Search period end: 05 June 2022 00:00
Orbit: 508 x 3258 km, 33.3° (Epoch: 26 May)

Date Brightness Start Highest point End Pass type
(mag) Time Alt. Az. Time Alt. Az. Time Alt. Az.
26 May 7.7 19:28:43 10° SW 19:38:44 86° NW 19:42:01 29° NE visible
27 May 10.5 04:30:52 10° N 04:35:10 15° NE 04:40:46 10° ENE visible
27 May 8.5 18:11:13 10° SW 18:23:27 55° SSE 18:30:14 10° ENE visible
27 May 8.9 20:28:37 10° WSW 20:35:39 30° NW 20:37:12 27° NNW visible
28 May 10.1 05:25:15 10° NNW 05:32:25 38° NE 05:44:24 10° ESE visible
28 May 8.2 19:10:15 10° WSW 19:21:15 71° NW 19:27:16 10° NE visible
29 May 10.2 04:13:19 10° N 04:17:36 17° NE 04:23:19 10° ENE visible
29 May 9.6 20:10:50 10° W 20:18:08 27° NW 20:22:55 10° NNE visible
30 May 9.7 05:07:58 10° NNW 05:14:36 43° NE 05:26:04 10° ESE visible
30 May 8.8 18:51:46 10° WSW 19:03:37 60° NW 19:10:09 10° NE visible
31 May 10.0 03:55:50 10° N 04:00:02 18° NE 04:05:49 10° E visible
31 May 9.9 19:53:03 10° W 20:00:32 24° NW 20:05:34 10° N visible
01 Jun 9.1 04:50:44 10° NNW 04:56:53 49° NE 05:07:43 10° ESE visible
01 Jun 9.4 18:33:15 10° WSW 18:45:53 52° NW 18:52:58 10° NE visible
02 Jun 9.7 03:38:22 10° N 03:42:29 20° NE 03:48:17 10° E visible
02 Jun 10.1 19:35:16 10° W 19:42:54 22° NW 19:48:10 10° N visible
03 Jun 8.5 04:33:35 10° NW 04:39:16 57° NE 04:49:23 10° ESE visible
03 Jun 9.9 18:14:44 10° WSW 18:28:01 46° NW 18:35:41 10° NNE visible
04 Jun 9.3 03:22:14 16° N 03:24:58 23° NE 03:30:44 10° E visible
04 Jun 8.3 05:30:18 10° WNW 05:36:47 64° SSW 05:48:38 10° SE visible
04 Jun 10.3 19:17:30 10° W 19:25:14 20° NW 19:30:42 10° N visible
